Location: D�rnast
(49.6426°N, 11.9755°E)
Time: 01:52:41
(UTC+00:00)

BlueWalker 3 - Pass Details

Date: 05 December 2022
Orbit: 499 x 517 km, 53.2° (Epoch: 26 January)

Event Time Altitude Azimuth Distance (km) Brightness Sun altitude
Rises 18:13:46 0° 293° (WNW) 2,629 6.6 -28.2°
Reaches altitude 10° 18:15:59 10° 291° (WNW) 1,737 5.5 -28.6°
Enters shadow 18:17:59 28° 285° (WNW) 972 3.9 -28.9°
